www.pogodaiklimat.ru

Погода и климат >> Архив погоды >> Россия >> Якутия >> Чурапча


ПОГОДА в Чурапче

  • Прогноз погоды в Чурапче
  • Монитор погоды в Чурапче
  • Климат города

АРХИВ ПОГОДЫ в Чурапче

Время (UTC), дата Ветер
(напр.,м/с)
 
Видим.   Явления Облачность Т
(С)
Тd
(С)
f
(%)
Тe
(С)
Тes
(С)
Комфортность P
(гПа)
Po
(гПа)
Тmin
(С)
Tmax
(С)
R
(мм)
R24
(мм)
S
(см)
21 12.10 штиль 0 20 км 9/9 600 м
[Sc]
-6.1 -7.6 89 -7 -7 1017.5 994.0
00 13.10 СВ 1 20 км {снег} 10/10 600 м
[Sc]
-5.5 -6.6 92 -8 -8 1017.7 994.3 -6.8 0.2 11
03 13.10 штиль 0 20 км 10/10 600 м
[Sc]
-2.8 -5.4 82 -4 -4 1017.2 994.0
06 13.10 Ю 1 20 км 10/10 600 м
[Sc]
-2.1 -4.6 83 -4 -4 1017.0 993.9
09 13.10 штиль 0 10 км {снег} 10/10 600 м
[Sc]
-2.5 -3.4 94 -4 -4 1017.0 993.9
12 13.10 Ю 1 4000 м слабый снег 10/10 600 м
[Sc]
-3.1 -3.5 97 -6 -6 1017.2 994.0 -1.8 0.7
15 13.10 ЮЗ 1 4000 м слабый снег 10/10 600 м
[Sc]
-4.0 -4.5 96 -6 -6 1017.0 993.7
18 13.10 штиль 0 4000 м слабый снег 10/10 600 м
[Sc]
-4.7 -5.3 96 -6 -6 1017.0 993.7
21 13.10 С 1 4000 м слабый снег 10/10 600 м
[Sc]
-4.7 -5.3 96 -7 -7 1016.9 993.6
00 14.10 С 1 20 км слабый снег 10/10 600 м
[Sc]
-5.0 -6.0 93 -7 -7 1017.4 994.0 1 13
03 14.10 СВ 1 10 км слабый снег 10/10 600 м
[Sc]
-4.1 -4.9 94 -7 -7 1017.8 994.5
06 14.10 С 1 4000 м слабый снег 10/0 600 м
[As op]
-3.9 -4.7 94 -6 -6 1018.4 995.1
09 14.10 С 1 20 км в посл. час снег 10/0 600 м
[As op]
-4.7 -6.3 89 -7 -7 1019.5 996.1
12 14.10 СЗ 1 20 км {снег} 9/9 600 м
[Sc]
-5.5 -6.9 90 -8 -8 1020.0 996.5 -3.2 1
15 14.10 штиль 0 20 км 9/9 600 м
[Sc]
-8.0 -9.4 90 -9 -9 1020.2 996.5
18 14.10 штиль 0 20 км 4/3 600 м
[Sc Ac trans]
-10.0 -11.0 92 -10 -10 1020.4 996.5
21 14.10 штиль 0 20 км ясно -17.0 -18.2 90 -17 -17 1021.4 996.8
00 15.10 В 1 20 км 3/0
[Ac trans]
-15.1 -17.5 82 -18 -17 1021.4 997.0 -18.0 13
03 15.10 СЗ 1 20 км 3/0
[Ac trans]
-8.4 -12.6 72 -11 -9 1021.4 996.7
06 15.10 СЗ 2 20 км 8/5 600 м
[Cu med, cong Ac trans]
-3.8 -8.3 71 -8 -7 1020.0 996.7
09 15.10 СЗ 1 20 км 1/1 600 м
[Sc]
-9.8 -11.4 88 -12 -12 1020.9 997.0
12 15.10 СЗ 1 20 км ясно -15.1 -16.8 87 -18 -18 1022.4 998.0 -3.5
15 15.10 штиль 0 20 км ясно -19.2 -21.1 85 -19 -19 1023.5 998.7
18 15.10 штиль 0 20 км ясно -22.3 -24.4 83 -22 -22 1024.5 999.3
21 15.10 З 1 20 км 3/3
[Sc]
-21.8 -24.1 82 -25 -25 1024.4 999.3
00 16.10 штиль 0 20 км 8/8 600 м
[Sc]
-19.5 -21.8 82 -20 -19 1025.0 1000.1 -22.4 13
03 16.10 СЗ 4 20 км 6/0
[Ac trans]
-7.7 -13.7 62 -14 -13 1023.4 999.6
06 16.10 З 5 20 км 8/5 600 м
[Sc Ac trans]
-7.1 -11.8 69 -14 -14 1023.3 999.6
09 16.10 СВ 4 20 км 9/8 600 м
[Sc Ac trans]
-9.5 -13.0 76 -16 -16 1024.4 1000.5
12 16.10 В 3 20 км 9/8 600 м
[Sc Ac trans]
-9.7 -12.2 82 -16 -16 1024.2 1000.2 -6.1
15 16.10 В 3 20 км 9/6 600 м
[Sc Ac trans]
-10.3 -13.4 78 -16 -16 1024.3 1000.3
18 16.10 В 3 20 км 9/5 600 м
[Sc Ac trans]
-11.9 -14.8 79 -18 -18 1025.1 1000.9
21 16.10 В 2 4000 м слабый снег 10/0
[As op]
-12.1 -14.7 81 -17 -17 1025.4 1001.2
00 17.10 З 3 10 км слабый снег 10/0
[As op]
-11.7 -14.7 78 -18 -18 1026.1 1001.9 -12.5 0.0 11
03 17.10 З 2 10 км слабый снег 10/10 600 м
[Sc]
-10.5 -14.7 71 -15 -15 1026.2 1002.1
06 17.10 З 2 10 км слабый снег 9/9 600 м
[Sc]
-9.9 -14.1 71 -14 -14 1026.5 1002.5
09 17.10 З 2 20 км в посл. час снег 9/9 600 м
[Sc]
-11.1 -15.6 69 -16 -16 1027.7 1003.5
12 17.10 З 1 20 км {снег} 9/9 600 м
[Sc]
-11.7 -15.9 71 -14 -14 1027.2 1003.0 -9.5 0.2
15 17.10 штиль 0 20 км 9/9 600 м
[Sc]
-13.5 -16.0 81 -14 -14 1027.6 1003.2
18 17.10 штиль 0 20 км 9/9 600 м
[Sc]
-14.0 -16.2 83 -14 -14 1027.3 1002.9
21 17.10 В 1 10 км слабый снег 9/9 600 м
[Sc]
-12.5 -15.1 81 -15 -15 1026.7 1002.4
00 18.10 ЮВ 2 20 км {снег} 9/9 600 м
[Sc]
-11.9 -15.3 76 -16 -16 1027.1 1002.9 -14.5 0.0 11
03 18.10 ЮВ 2 20 км {снег} 9/9 600 м
[Sc]
-11.5 -15.4 73 -16 -16 1026.7 1002.5
06 18.10 В 3 20 км {снег} 9/9 600 м
[Sc]
-11.1 -15.3 71 -17 -17 1025.8 1001.7
09 18.10 ЮВ 4 20 км 9/9 600 м
[Sc]
-11.7 -15.4 74 -19 -19 1025.1 1000.9
12 18.10 В 3 4000 м слабый снег 9/9 600 м
[Sc]
-11.9 -15.4 75 -18 -18 1025.1 1000.9 -10.6 0.0
15 18.10 В 2 10 км {снег} 9/9 600 м
[Sc]
-12.2 -15.2 78 -17 -17 1024.3 1000.1
18 18.10 В 3 10 км {снег} 9/9 600 м
[Sc]
-12.4 -15.1 80 -18 -18 1023.5 999.3
21 18.10 В 3 10 км 8/8 600 м
[Sc]
-13.7 -15.8 84 -20 -20 1023.2 998.9
00 19.10 СВ 3 20 км 9/0
[Ac trans]
-13.9 -15.9 85 -20 -20 1022.8 998.5 -14.2 0.0 10
03 19.10 СВ 4 20 км 8/0
[Ci fib]
-10.5 -14.7 71 -17 -17 1021.8 997.8
06 19.10 В 2 20 км 9/0
[Cs]
-9.0 -13.9 68 -13 -13 1020.4 996.6
09 19.10 штиль 0 20 км 9/6 600 м
[Sc Ac trans]
-11.3 -15.5 71 -11 -11 1022.6 998.5
12 19.10 штиль 0 10 км 10/10 600 м
[Sc]
-11.1 -14.6 75 -11 -11 1023.5 999.4 -8.3
15 19.10 ЮЗ 1 4000 м слабый снег 10/0 600 м
[As op]
-11.6 -13.6 85 -14 -14 1024.3 1000.2

 

Местоположение метеостанции Чурапча (Якутия, Россия): широта 62.03 долгота 132.60 высота над уровнем моря 186 м.

В архиве по умолчанию представлена погода в Чурапче за последнюю неделю. Архивные данные за месяц целиком и за предыдущие месяцы, начиная с января 2011 года, Вы можете получить, выбрав интересующий диапазон дат из раскрывающегося списка и нажав кнопку "Ввод!".

Внимание! Время в таблицах - всемирное. Для получения местного времени необходимо прибавить поправку, которая в Чурапче равна 9 ч.

Смотрите также архив погоды в соседних городах и на ближайших метеорологических станциях:

Погода в Ытык-Кюёле (Якутия, Россия) (60 км)
Погода в Крест-Хальджае (Якутия, Россия) (128 км)
Погода в Амге (Якутия, Россия) (131 км)
Погода в Верхоянском Перевозе (Якутия, Россия) (147 км)
Погода в Охотском Перевозе (Якутия, Россия) (153 км)
Погода в Якутске (Якутия, Россия) (157 км)
Погода в Намцах (Якутия, Россия) (173 км)
Погода в Покровске (Якутия, Россия) (194 км)
Погода в Усть-Мае (Якутия, Россия) (210 км)
Погода в Тегюльте (Якутия, Россия) (222 км)

Пояснения к столбцам:

Ветер - указаны скорость ветра в м/с - средняя за 10 мин, порывы в срок и между сроками (в фигурных скобках) и направление, откуда дует ветер: С - северный, СВ - северо-восточный, В - восточный, ЮВ - юго-восточный, Ю - южный, ЮЗ - юго-западный, З - западный, СЗ - северо-западный.
Видимость - горизонтальная дальность видимости в метрах или километрах. При видимости от 1 до 10 км при отсутствии осадков обычно наблюдается дымка, при ухудшении видимости до 1 км и менее - туман. В сухую погоду видимость может ухудшаться дымом, пылью или мглою.
Явления - указаны атмосферные явления, наблюдавшиеся в срок или в последний час перед сроком; фигурными скобками обозначены явления, наблюдавшиеся между сроками (за 1-3 часа до срока); квадратными скобками обозначены град или гололедные отложения с указанием их диаметра в мм.
Облачность - указаны через наклонную черту общая и нижняя облачность в баллах и высота нижней границы облаков в метрах; квадратными скобками обозначены формы облаков: Ci - перистые, Cs - перисто-слоистые, Cc - перисто-кучевые, Ac - высококучевые, As - высокослоистые, Sc - слоисто-кучевые, Ns - слоисто-дождевые, Cu - кучевые, Cb - кучево-дождевые. Подробнее классификацию облаков см. в Атласе облаков (PDF).
T - Температура воздуха - температура, измеренная на высоте 2 м над землей.
Td - Температура точки росы - температура, при понижении до которой содержащийся в воздухе водяной пар достигнет насыщения.
f - Относительная влажность воздуха - влажноcть воздуха, измеренная на высоте 2 м над землей.
Te - Эффективная температура - температура, которую ощущает одетый по сезону человек в тени. Характеристика душности погоды. При расчете учитывается влияние влажности воздуха и скорости ветра на теплоощущения человека.
Tes - Эффективная температура на солнце - температура, которую ощущает человек, с поправкой на солнечный нагрев. Характеристика знойности погоды. Зависит от высоты солнца над горизонтом, облачности и скорости ветра. Ночью, в пасмурную погоду, а также при ветре 12 м/с и более поправка равна нулю.
P - Атмосферное давление - приведенное к уровню моря атмосферное давление.
Po - Атмосферное давление - измеренное на уровне метеостанции атмосферное давление.
Tmin - Минимальная температура - минимум температуры воздуха на высоте 2 м над землей.
Tmax - Максимальная температура - максимум температуры воздуха на высоте 2 м над землей.
R - Количество осадков - Количество выпавших осадков за период времени, мм. При наведении курсора мыши на число - период времени, за который выпало указанное количество осадков.
R24 - Количество осадков - Количество выпавших осадков за 24 часа, мм.
S - Снежный покров - Высота снежного покрова, см. При наведении курсора мыши на число - состояние снежного покрова и степень покрытия местности в баллах.